This demonstration page uses our WeatherBlox Daily Observations layout. Learn more.

Left ArrowRight Arrow

Hourly Observations for December 7, 2018

Temp ( °F °C ) Dew Point ( °F °C ) Humidity (%) Winds ( mph kmh ) Pressure ( in mb ) Visibility ( mi km ) Precip ( " mm )
12:53 am 00:53 Cloudy 24 -4.4 18 -7.8 77 77 Calm 30.48 1032 10 16 0.00 0.00
1:53 am 01:53 Cloudy 24 -4.4 19 -7.2 81 81 Calm 30.48 1032 10 16 0.00 0.00
2:53 am 02:53 Cloudy 24 -4.4 19 -7.2 81 81 S 3 6 30.49 1032 9 14 0.00 0.00
3:53 am 03:53 Clear 23 -5 19 -7.2 85 85 S 5 7 30.48 1032 7 11 0.00 0.00
4:53 am 04:53 Clear with Mist and Fog 21 -6.1 17 -8.3 85 85 S 6 9 30.47 1032 6 10 0.00 0.00
5:53 am 05:53 Clear with Mist and Fog 20 -6.7 17 -8.3 89 89 SSW 5 7 30.48 1032 5 8 0.00 0.00
6:53 am 06:53 Clear with Mist and Fog 20 -6.7 17 -8.3 89 89 SSW 7 11 30.48 1032 6 10 0.00 0.00
7:53 am 07:53 Sunny with Mist and Fog 20 -6.7 16 -8.9 85 85 SSW 9 15 30.50 1033 4 6 0.00 0.00
8:53 am 08:53 Hazy 22 -5.6 17 -8.3 82 82 SSW 8 13 30.51 1033 5 8 0.00 0.00
9:53 am 09:53 Hazy 24 -4.4 18 -7.8 77 77 SSW 9 15 30.52 1034 6 10 0.00 0.00
10:53 am 10:53 Sunny 27 -2.8 18 -7.8 69 69 SW 12 19 30.52 1034 8 13 0.00 0.00
11:53 am 11:53 Sunny 29 -1.7 21 -6.1 72 72 SW 10 17 30.50 1033 7 11 0.00 0.00
12:53 pm 12:53 Sunny 30 -1.1 21 -6.1 69 69 WSW 8 13 30.48 1032 8 13 0.00 0.00
1:53 pm 13:53 Sunny 31 -0.6 22 -5.6 69 69 SW 10 17 30.45 1031 9 14 0.00 0.00
2:53 pm 14:53 Sunny 33 0.6 22 -5.6 64 64 WSW 6 9 30.43 1031 9 14 0.00 0.00
3:53 pm 15:53 Sunny 32 0 22 -5.6 66 66 WSW 6 9 30.44 1031 8 13 0.00 0.00
4:53 pm 16:53 Sunny 30 -1.1 22 -5.6 72 72 SW 3 6 30.48 1032 8 13 0.00 0.00
5:53 pm 17:53 Clear 28 -2.2 21 -6.1 75 75 Calm 30.49 1032 8 13 0.00 0.00
6:53 pm 18:53 Hazy 24 -4.4 19 -7.2 81 81 Calm 30.50 1033 6 10 0.00 0.00
7:53 pm 19:53 Clear with Mist and Fog 22 -5.6 18 -7.8 85 85 Calm 30.50 1033 6 10 0.00 0.00
8:53 pm 20:53 Clear with Mist and Fog 20 -6.7 18 -7.8 92 92 Calm 30.50 1033 5 8 0.00 0.00
9:53 pm 21:53 Clear with Mist and Fog 20 -6.7 16 -8.9 85 85 Calm 30.50 1033 4 6 0.00 0.00
10:53 pm 22:53 Clear with Mist and Fog 19 -7.2 15 -9.4 84 84 Calm 30.52 1033 4 6 0.00 0.00
11:53 pm 23:53 Hazy 19 -7.2 14 -10 81 81 S 3 6 30.52 1034 4 6 0.00 0.00

Powered by AerisWeather